Regional Weather Roundup
Issued by NWS Goodland, KS

Home | Current Version | Previous Version | Text Only | Print | Product List | Glossary Off
Versions: 1 2 3 4 5 6 7 8 9 10 11 12 13 14 15 16 17 18 19 20 21 22 23 24 25 26 27 28 29 30 31 32 33 34 35 36 37 38 39 40 41 42 43 44 45 46 47 48 49 50

000
ASUS43 KGLD 282259
RWRGLD

GOODLAND FORECAST AREA HOURLY WEATHER ROUNDUP
NATIONAL WEATHER SERVICE GOODLAND KS
400 PM MST FRI NOV 28 2014

...OFFICIAL OBSERVATIONS...

CITY           SKY/WX    TMP DP  RH WIND       PRES   REMARKS
GOODLAND KS    PTCLDY    65  13  13 NW5       29.77F
HILL CITY KS   MOCLDY    76  19  11 S3        29.72S
IMPERIAL NEB   CLOUDY    64  17  16 W6        29.74S
MCCOOK NEB     MOCLDY    69  10  10 NW7       29.71F
AKRON CO       CLOUDY    56  19  23 SW9       29.80F
BURLINGTON CO  MOCLDY    63  17  17 NE6       29.80F
LIMON CO       CLOUDY    57  10  15 SE5       29.85S
$$

...UNOFFICIAL OBSERVATIONS...

CITY           SKY/WX    TMP DP  RH WIND       PRES   REMARKS
COLBY KS       CLEAR     72  28  20 NE3       29.76F
NORTON KS      CLEAR     66  10  11 SW6       29.71S
SHARON SPRINGS   N/A     62  17  17 SW6         N/A
TRENTON NEB      N/A     69  32  25 NW9         N/A
YUMA CO          N/A     58  24  27 SW6         N/A
$$


USA.gov is the U.S. government's official web portal to all federal, state and local government web resources and services.